GFSCGP_700_rhum_057.txt.gz
RH
60 63 53 44 41 35 33 30 23 17 16 27 47 61 60 60 61 61 77 94 82 79 83 82 97 93 82 72 56 34 20 44 44 27 38 55 48 68 60 46 63 40 39 68
51 53 52 44 39 34 28 28 24 20 13 13 34 55 59 54 53 72 71 92 61 93 97 94 92 95 74 56 38 23 19 41 40 30 42 45 63 66 60 63 44 33 32 49
45 38 26 41 37 27 26 26 24 22 15 17 35 54 68 64 61 71 97 97 80 76 82 98 92 90 77 48 30 16 19 36 32 34 39 44 47 70 62 81 54 31 31 40
40 37 30 31 31 27 23 23 20 18 17 18 40 64 62 66 58 53 58 76 94 85 87 85 97 83 70 39 28 16 16 32 30 30 32 38 41 31 43 53 37 34 33 28
32 28 33 29 26 21 23 21 19 18 17 17 16 16 32 60 57 52 55 62 79 88 82 83 78 75 58 39 20 14 15 27 30 28 29 33 41 38 41 51 91 37 32 25
22 26 26 29 26 24 19 20 18 18 19 22 16 15 15 40 30 48 51 48 55 66 96 46 84 77 64 48 29 17 12 18 31 28 27 30 31 33 34 35 39 29 28 26
22 22 22 23 24 20 20 20 21 26 25 26 18 14 13 26 33 37 40 43 53 61 91 70 84 81 83 53 36 21 13 13 24 27 26 27 30 30 29 29 25 29 28 23
16 15 12 25 27 27 19 19 22 34 33 24 18 17 14 12 14 20 43 45 57 69 76 79 72 56 68 35 30 33 21 13 15 20 22 25 29 30 28 28 30 25 25 22
21 17 17 16 20 26 21 24 19 19 20 23 19 16 16 14 12 13 36 54 60 68 82 69 87 62 57 37 24 23 30 22 14 13 17 20 26 26 25 27 27 28 27 23
26 22 17 18 16 23 24 25 25 22 32 36 23 20 20 16 12 14 25 52 49 49 58 64 66 91 66 52 32 31 30 37 24 16 13 15 19 23 22 25 26 27 29 25
27 28 13 18 18 18 22 21 24 26 28 37 32 23 18 19 20 14 12 33 44 49 51 41 63 76 74 75 61 38 26 32 40 29 21 14 14 20 22 22 23 24 27 28
36 37 28 23 17 19 19 20 21 20 25 26 30 31 18 22 22 21 29 35 33 42 54 46 49 64 72 82 78 62 42 22 28 36 28 24 18 14 16 18 19 21 23 26
39 38 37 22 12 18 21 17 18 18 16 14 20 25 28 24 23 42 50 54 54 59 53 54 51 43 43 62 68 65 64 37 21 26 31 27 24 17 15 15 17 18 20 22
45 43 44 45 43 43 38 30 23 18 15 12 12 15 22 18 25 33 42 50 69 73 64 53 54 54 55 52 56 51 57 61 26 17 17 17 17 16 14 15 16 16 18 19
49 48 45 45 45 44 43 38 33 29 25 23 18 16 22 21 22 26 33 41 44 50 86 65 69 66 50 38 52 47 58 71 40 26 19 16 14 15 16 15 16 16 16 17
66 62 51 49 48 46 48 47 41 35 29 24 21 16 14 17 20 22 26 36 40 42 56 76 75 50 64 49 45 68 47 91 50 44 38 31 22 14 13 12 12 14 14 15
75 71 65 69 59 60 60 46 45 41 35 27 24 22 20 22 20 23 25 29 37 39 51 57 57 47 59 59 52 44 57 87 56 46 46 46 41 23 13 13 12 11 12 13
74 72 84 87 76 86 43 52 45 46 43 35 31 24 24 26 22 20 23 28 34 40 58 70 88 97 95 88 81 49 73 88 76 45 37 43 50 45 28 16 14 13 13 12
67 62 68 81 72 64 52 41 47 49 44 40 38 34 24 30 24 19 19 22 28 34 43 64 76 92 99 96 78 78 98 98 79 85 44 35 41 45 36 29 21 14 14 14
81 84 94 98 89 76 33 42 43 49 49 43 41 41 32 27 24 20 18 18 20 25 42 53 68 78 70 86 85 90 82 82 74 56 73 45 34 36 35 38 41 39 29 16
71 62 72 79 98 88 73 58 54 70 61 50 46 44 40 36 26 20 18 12 13 20 43 52 63 74 46 64 60 64 82 51 52 82 76 69 38 30 28 34 45 41 37 36
98 95 94 94 97 91 90 69 79 68 45 65 55 42 38 36 28 24 23 20 16 12 23 49 51 65 47 62 48 59 70 96 68 50 70 87 62 32 29 28 39 46 48 46
90 88 96 100 79 73 79 88 88 78 67 54 67 55 53 43 25 23 21 20 19 14 13 14 47 53 45 55 50 42 30 28 81 81 60 49 64 39 31 33 30 40 46 45
95 91 86 90 84 90 86 84 84 72 66 61 50 48 50 46 37 23 17 14 15 15 13 13 15 14 42 44 54 47 31 24 30 53 47 46 37 39 35 30 31 32 39 43
88 89 98 81 86 78 82 88 85 85 85 90 85 70 59 58 49 44 24 15 20 43 25 17 15 11 18 26 43 46 50 30 25 28 22 20 19 23 37 22 25 32 34 40
90 84 94 94 86 96 92 88 86 84 87 90 97 92 92 96 72 49 28 55 81 95 40 25 11 10 6 9 32 43 45 39 30 26 33 20 19 18 17 19 20 17 21 35

GFSCGP_700_rhum_060.txt.gz
RH
65 60 55 49 52 47 41 40 36 27 24 25 24 52 56 63 73 64 54 47 56 70 76 89 99 85 97 87 87 66 62 61 65 72 34 66 41 54 44 51 51 52 60 77
58 62 56 60 49 42 38 34 31 27 24 24 25 43 60 66 63 55 64 64 67 71 76 82 96 100 99 88 81 70 43 32 51 47 38 71 46 80 47 57 45 42 48 62
54 44 39 55 45 44 38 35 28 28 25 23 40 69 66 66 73 74 82 86 80 82 71 82 86 64 75 83 77 56 34 23 40 34 38 59 65 60 68 71 44 36 40 59
54 40 39 40 44 41 41 28 27 25 23 21 35 72 80 73 75 80 69 44 48 74 81 79 84 79 89 95 83 51 38 24 45 30 35 44 60 60 50 62 45 34 32 54
42 37 31 36 34 33 28 24 24 23 21 19 28 25 29 76 78 64 62 50 46 53 65 83 81 80 84 83 79 50 36 23 42 38 30 40 41 45 58 70 42 31 27 37
29 36 25 26 28 30 28 26 20 21 20 23 20 19 77 57 48 54 56 57 57 58 60 59 80 80 92 94 82 66 46 21 32 43 29 31 42 47 43 48 34 35 26 25
26 26 25 23 22 26 26 24 22 25 25 29 20 20 17 16 37 48 44 50 49 63 69 59 87 73 86 80 60 60 46 19 22 38 30 29 36 41 42 39 55 39 37 30
16 17 19 17 21 25 26 21 22 31 34 29 18 19 17 14 13 13 15 56 59 56 64 56 55 59 60 70 46 48 41 21 17 30 33 29 30 34 32 33 33 26 27 26
23 17 16 18 18 24 27 24 22 21 24 23 21 20 18 23 23 17 13 30 51 55 53 55 56 71 58 56 44 35 40 27 16 18 29 31 30 28 29 28 30 30 28 27
26 21 16 17 17 19 26 25 25 25 33 32 25 22 22 22 22 22 17 13 27 49 49 50 54 56 58 46 69 56 42 43 25 15 18 26 30 30 28 28 27 30 31 27
27 24 17 16 19 21 24 24 25 26 28 42 39 26 36 33 30 26 24 20 24 48 50 45 53 52 45 33 33 29 42 48 43 34 17 17 26 31 32 29 27 28 29 30
35 28 22 18 17 18 22 28 26 24 27 31 32 31 27 24 44 54 50 31 36 57 64 64 57 48 54 60 52 39 33 33 41 44 38 20 15 24 30 28 28 27 27 26
37 38 29 17 14 17 22 29 33 24 18 18 18 20 25 23 23 42 54 43 46 59 60 63 70 72 67 54 42 43 40 37 38 45 44 36 24 16 19 27 26 28 29 28
44 41 38 42 49 45 42 34 38 38 30 33 18 14 25 22 25 26 44 78 88 76 72 73 65 50 42 43 72 57 54 44 42 46 49 46 38 31 22 18 20 22 25 26
52 48 44 44 46 44 44 39 38 40 42 42 32 25 24 24 20 24 42 39 71 87 83 82 73 53 48 46 54 71 52 49 49 49 46 52 48 40 36 30 23 19 18 19
71 66 55 46 42 41 40 37 34 32 37 40 39 35 28 28 24 21 26 50 32 69 94 92 86 69 60 55 57 58 61 59 57 57 46 43 54 43 30 32 29 30 23 18
69 68 71 71 64 49 46 30 27 29 43 42 47 42 37 33 27 24 20 30 46 30 52 80 85 84 69 63 57 66 66 61 56 64 59 36 36 51 29 23 29 24 27 23
67 67 71 77 70 86 45 38 30 36 50 50 48 42 40 42 34 27 23 21 36 35 30 63 77 69 69 66 54 61 56 60 70 70 61 54 45 43 46 22 19 21 22 20
74 72 76 86 82 63 44 54 46 48 52 48 45 42 42 42 40 35 28 24 22 29 28 37 74 75 70 89 82 71 66 78 76 62 62 55 57 60 73 33 20 17 19 17
84 80 81 87 95 94 63 57 66 60 57 51 49 43 40 40 40 34 30 28 25 23 30 30 35 71 97 74 76 83 88 65 59 48 57 65 60 70 72 60 40 28 19 17
61 67 77 93 98 83 87 77 64 70 57 43 45 42 38 41 42 33 28 24 25 25 22 23 27 40 75 61 68 65 63 51 49 59 56 59 62 70 65 72 73 51 41 32
75 71 80 85 90 96 89 82 81 81 68 61 48 46 39 36 32 35 35 30 21 21 23 20 24 27 50 62 53 70 70 66 48 46 69 61 66 74 72 53 65 69 59 53
85 86 91 85 74 74 73 73 72 67 60 67 66 57 50 43 34 30 29 31 30 28 24 20 15 18 29 49 63 50 64 75 65 63 54 57 72 81 88 76 69 80 65 59
72 81 79 88 75 71 86 88 90 87 81 75 71 54 51 53 41 35 24 24 26 27 26 22 17 21 18 40 47 52 41 53 54 55 73 77 84 62 69 67 64 59 64 50
78 77 69 62 73 61 75 87 88 84 82 78 72 70 71 90 60 48 35 20 18 19 21 22 20 16 14 46 40 39 41 31 36 62 67 76 81 97 70 64 49 43 39 40
62 71 65 64 71 71 74 80 74 84 86 85 83 80 87 98 100 76 51 32 20 16 14 15 15 15 14 17 23 44 38 27 32 46 50 51 66 68 66 57 42 36 39 34

GFSCGP_700_rhum_063.txt.gz
RH
44 69 77 74 64 55 48 44 39 31 32 30 25 24 32 65 62 62 71 54 51 69 81 90 86 84 90 87 89 73 66 68 55 71 50 58 50 53 48 58 57 66 76 69
48 72 74 66 59 54 50 40 37 28 28 29 26 30 41 63 62 65 73 58 46 74 89 90 85 76 97 92 79 78 75 64 60 61 54 40 50 50 55 57 56 54 68 80
56 63 63 60 53 52 48 37 32 31 28 25 34 46 55 74 75 73 73 69 67 65 78 82 67 61 76 82 85 81 68 63 45 58 52 54 59 59 62 54 57 42 49 64
57 53 52 49 60 50 44 31 36 32 32 22 26 66 65 69 63 71 65 67 72 58 72 69 57 50 80 94 88 77 85 67 49 32 41 39 42 48 65 76 65 42 40 59
48 42 38 44 41 45 31 32 32 32 29 24 22 61 46 61 62 59 56 47 55 64 56 50 48 58 56 71 76 85 91 78 59 36 39 27 42 51 58 71 62 44 39 52
47 40 31 34 32 32 30 32 32 32 28 24 20 22 23 25 21 29 54 57 55 78 82 75 63 67 68 71 77 87 92 74 48 35 46 28 41 48 70 77 69 41 39 37
37 39 37 32 24 25 26 32 27 27 28 30 21 21 18 17 16 21 38 52 50 59 63 74 73 58 77 78 61 78 80 70 53 30 40 36 33 42 50 54 65 43 37 31
16 18 26 22 20 23 25 26 25 32 36 28 20 19 23 21 16 17 18 42 55 56 58 66 66 58 53 71 44 49 77 74 52 30 32 36 31 34 50 54 49 57 46 39
23 17 20 19 19 21 24 28 24 22 26 23 23 22 25 26 23 23 20 19 35 54 62 51 56 53 45 64 35 40 59 65 56 26 24 35 30 28 36 41 46 46 41 41
27 23 17 18 19 20 23 30 27 25 35 31 27 33 54 35 32 24 21 18 15 28 60 55 52 53 50 46 41 40 44 49 44 26 18 27 34 30 27 33 34 33 40 38
28 23 20 18 22 21 25 28 29 29 27 42 40 47 56 44 44 32 24 20 16 19 49 60 56 64 56 58 74 68 73 59 53 34 23 17 23 31 31 28 29 31 36 38
32 27 26 26 24 25 24 33 28 29 32 36 32 48 45 34 34 32 33 23 23 18 43 66 64 62 61 60 58 50 72 78 56 58 46 26 16 22 28 29 29 31 33 35
38 32 30 32 32 28 28 34 32 26 21 24 26 30 26 22 26 30 36 31 28 46 58 72 70 74 71 64 65 71 67 67 74 61 53 53 33 16 18 24 27 30 32 34
42 40 41 43 46 43 42 38 35 36 39 36 35 29 26 23 20 22 41 60 77 82 98 82 80 77 75 70 72 66 62 59 70 73 68 52 49 35 19 16 22 26 29 31
45 47 45 47 50 48 46 43 40 37 37 40 36 42 32 29 23 21 24 42 48 94 99 97 85 75 74 77 88 91 58 53 65 75 73 72 55 57 49 32 19 18 24 26
59 55 48 41 43 45 43 42 39 35 34 32 34 38 34 37 30 24 22 28 45 42 96 94 96 91 81 80 87 65 72 60 47 65 70 75 72 70 63 47 42 29 19 18
54 58 50 49 38 34 33 47 45 48 52 38 32 35 44 37 37 27 23 22 30 43 51 85 100 92 81 77 76 71 69 51 49 57 64 68 66 70 68 64 53 45 36 27
57 64 67 72 60 74 57 49 49 45 51 56 50 36 47 46 39 36 27 23 22 27 35 40 69 94 87 96 73 64 66 63 60 56 61 62 64 72 71 69 54 39 40 39
68 67 69 74 81 56 43 44 44 46 46 39 53 50 49 51 48 38 36 29 25 23 30 42 32 56 95 96 73 66 60 56 54 60 62 56 63 69 78 79 43 32 28 36
80 82 82 82 84 92 62 62 71 81 67 52 41 40 41 43 49 42 40 35 29 27 23 31 46 39 56 86 92 85 63 78 72 66 64 56 62 61 65 76 82 38 29 25
65 72 81 94 97 87 78 72 65 77 68 66 54 47 53 51 50 39 39 40 38 32 27 24 24 37 41 67 70 93 98 97 89 70 62 55 54 52 58 67 79 80 41 37
56 58 61 69 85 89 90 84 76 72 77 76 71 67 61 58 54 48 38 34 35 35 31 26 24 25 28 43 60 72 84 90 83 77 67 60 59 49 53 63 80 82 66 53
63 61 62 61 50 62 59 56 62 61 56 55 52 50 51 50 56 59 43 33 26 28 30 30 25 24 30 28 38 56 64 70 66 67 66 57 62 59 56 58 68 77 82 61
62 69 67 65 46 54 55 56 60 75 77 76 74 69 68 61 56 52 43 32 25 21 22 24 26 21 32 44 37 27 51 60 56 48 55 80 81 71 65 64 67 76 84 58
68 63 63 57 57 59 58 58 58 52 47 62 82 80 78 72 60 62 54 41 31 25 20 18 20 22 23 27 37 50 37 48 57 47 53 73 80 75 78 76 70 77 74 59
59 58 65 72 57 62 72 73 71 68 47 42 76 84 84 79 72 79 68 58 49 37 30 20 14 15 18 20 22 32 53 48 49 51 42 49 68 69 66 62 69 64 62 54

GFSCGP_700_rhum_069.txt.gz
RH
25 17 15 45 59 63 55 52 41 40 41 35 30 28 31 39 75 67 72 72 84 91 95 89 92 83 61 48 44 31 31 36 36 42 62 61 44 50 63 63 70 74 70 72
25 20 18 40 74 70 61 53 48 39 36 32 28 26 25 26 34 67 69 69 76 89 98 95 94 83 56 68 58 57 49 42 46 54 81 66 46 62 59 54 60 63 73 77
28 22 24 48 73 75 66 56 50 41 36 30 25 26 29 34 25 39 70 72 78 75 81 92 93 81 69 72 69 67 57 54 55 69 73 58 42 60 54 55 54 54 68 77
36 29 31 64 72 69 58 55 48 42 35 28 26 29 24 30 32 38 59 66 71 71 80 90 92 88 65 71 73 73 72 69 57 58 62 62 53 48 62 62 55 39 50 65
49 32 48 70 67 68 60 51 51 42 40 32 25 36 31 23 53 56 58 59 72 76 72 76 86 87 67 69 63 76 75 82 62 51 51 58 47 64 58 78 58 40 41 61
50 54 61 63 74 66 58 50 39 37 34 28 26 32 33 36 38 57 59 57 68 80 73 74 78 87 79 75 80 83 79 82 85 52 41 40 46 62 60 69 69 57 38 57
48 46 53 56 49 47 48 42 33 32 31 26 24 24 42 43 39 24 22 40 52 65 75 67 62 72 78 75 80 78 83 77 92 78 45 39 33 40 52 61 64 63 52 37
39 36 39 36 30 31 40 38 29 33 30 24 23 23 47 46 40 29 20 31 35 49 65 63 57 55 66 64 78 88 81 78 88 92 70 44 40 31 35 47 69 76 76 45
32 27 33 31 33 27 25 30 30 28 30 23 25 27 37 39 37 31 25 22 43 42 52 60 60 60 57 59 69 79 73 78 87 75 81 72 39 38 34 41 45 51 55 64
23 26 24 24 23 25 24 28 28 28 30 26 36 49 42 31 29 27 28 24 23 43 55 63 60 66 66 63 68 76 81 79 77 73 76 89 66 35 38 35 40 51 54 56
24 23 25 25 24 24 28 30 29 29 28 24 31 43 30 29 30 26 25 24 22 23 38 61 69 66 70 73 72 76 82 87 93 92 92 89 87 41 34 34 34 42 47 54
27 23 28 34 32 30 29 29 30 29 37 30 33 40 29 26 28 34 28 29 24 27 26 38 59 72 73 73 78 78 81 85 93 93 97 96 97 89 42 34 36 37 39 41
29 27 37 35 30 31 30 31 31 30 31 36 28 32 29 26 25 33 40 36 38 36 38 43 50 57 58 71 76 79 82 80 82 91 92 98 97 96 72 37 30 38 37 38
34 30 31 24 28 28 28 31 30 30 31 36 38 40 32 27 24 27 40 79 76 64 57 52 60 66 69 67 67 70 78 81 78 83 88 93 96 97 99 86 64 34 35 38
40 40 38 35 32 30 26 26 29 31 33 35 40 42 31 29 27 27 25 37 75 97 99 98 97 78 80 69 62 66 65 70 75 80 82 88 87 92 97 100 93 78 45 29
39 40 44 44 41 38 34 24 24 26 29 33 34 34 34 34 31 31 44 29 37 50 99 99 98 97 99 98 78 65 63 66 65 67 73 79 86 86 92 90 99 100 83 48
37 35 47 57 42 38 34 24 22 27 26 31 39 36 31 31 33 33 33 35 50 49 67 93 100 100 100 99 99 100 89 66 62 65 68 72 72 72 79 76 81 78 76 74
35 41 46 66 49 46 40 31 32 34 34 32 30 28 32 30 30 32 33 34 32 37 61 70 82 89 100 100 100 98 99 95 77 62 68 69 62 65 58 70 57 55 57 57
47 44 47 70 56 54 49 45 40 37 33 29 29 28 28 26 30 34 31 29 30 32 30 44 63 56 63 86 98 100 100 98 94 69 68 72 70 67 54 59 65 66 68 62
74 63 58 52 63 51 56 42 40 40 59 34 33 30 28 30 29 30 23 32 33 32 31 30 26 38 32 34 66 94 98 98 98 97 80 80 70 70 71 59 70 70 79 78
65 77 81 83 80 71 55 58 58 69 70 50 53 50 45 41 37 31 28 26 24 24 30 32 29 28 26 28 28 33 84 99 100 96 88 75 70 67 70 71 69 70 75 80
52 59 74 80 78 67 51 62 70 65 59 53 48 46 44 42 40 38 34 31 28 25 23 23 25 28 28 27 27 32 30 38 90 99 96 90 72 75 79 69 76 80 78 78
52 47 48 42 39 40 30 31 45 50 45 43 37 38 38 33 36 39 37 34 30 30 27 23 19 19 23 27 29 25 29 29 31 60 46 72 74 72 86 89 82 78 75 70
44 42 41 41 33 29 27 25 23 25 25 26 24 24 22 20 18 16 16 37 42 37 30 26 24 20 15 21 24 26 25 25 28 37 29 29 36 54 65 86 87 83 82 77
50 49 43 36 37 34 31 26 29 32 33 34 33 30 29 24 20 18 16 27 46 46 44 36 31 27 24 17 18 21 24 24 22 26 49 33 28 33 42 53 72 82 75 73
47 49 42 37 32 31 28 31 36 38 42 50 43 37 33 31 27 21 18 23 47 53 54 51 45 38 33 28 19 18 19 22 22 21 26 47 34 34 44 44 44 50 76 72

GFSCGP_700_rhum_072.txt.gz
RH
28 37 30 30 33 33 29 38 40 40 63 53 46 39 61 37 73 73 82 90 96 93 73 69 84 84 77 64 54 50 24 30 38 42 57 44 59 67 68 68 73 72 72 65
34 31 29 36 41 50 42 40 38 39 38 41 33 32 61 52 61 72 73 74 92 97 96 80 86 89 80 52 41 34 30 28 37 46 64 65 48 52 63 59 68 72 72 64
26 24 33 52 54 50 40 35 39 37 37 37 40 39 54 39 87 82 75 89 98 99 99 95 89 91 82 42 38 33 40 41 41 54 69 63 44 59 67 59 60 60 70 65
24 29 34 43 49 44 36 39 40 42 36 29 34 30 50 80 91 72 76 70 94 100 100 97 94 93 86 55 46 65 63 56 52 71 70 53 46 64 68 66 59 46 59 66
29 28 34 40 44 46 38 46 42 40 38 32 27 28 56 60 80 50 37 68 94 81 76 100 98 98 91 58 61 74 81 74 67 61 63 62 53 49 62 75 69 56 58 64
37 32 34 40 50 53 50 44 40 37 33 30 24 24 32 46 59 66 91 80 86 100 82 90 100 99 90 66 56 75 82 79 77 63 56 56 52 46 52 65 68 76 50 61
38 41 39 45 52 52 50 37 27 26 25 22 22 25 45 50 45 31 42 54 95 100 100 95 97 98 94 69 57 68 76 88 78 70 60 49 48 58 55 61 73 72 63 40
30 33 38 44 45 44 44 34 21 26 21 18 25 22 39 51 43 39 23 23 50 94 98 96 93 96 97 83 60 71 68 88 90 82 64 55 47 41 51 49 61 70 85 54
29 28 32 33 30 31 39 36 24 21 21 16 21 40 40 52 52 30 25 25 68 95 100 98 96 86 92 88 77 67 76 82 92 95 89 63 55 45 35 38 54 72 75 76
29 30 31 32 36 31 30 30 30 24 22 22 19 28 36 54 36 32 26 26 44 80 99 100 97 95 88 83 78 67 70 82 82 94 94 92 70 55 45 40 42 45 54 58
30 28 29 34 32 29 30 27 27 22 20 17 21 28 43 62 31 29 27 26 29 41 87 87 98 88 90 94 80 70 75 78 84 88 93 94 89 74 54 42 40 41 52 53
24 25 26 30 32 27 32 30 29 24 26 24 20 36 68 43 32 34 34 32 30 34 42 61 56 81 94 95 79 66 69 78 87 90 89 92 95 95 77 49 43 40 43 48
27 32 30 30 31 29 32 34 34 31 27 22 19 38 76 32 32 63 46 50 56 53 52 69 74 90 66 73 83 95 77 78 82 86 89 99 92 97 92 75 52 41 40 40
30 32 37 24 27 27 35 34 33 30 24 25 26 48 75 76 34 50 99 87 64 72 67 76 72 60 65 73 72 71 75 79 84 83 85 82 95 89 94 90 88 54 39 40
42 41 41 30 28 35 34 32 32 31 32 28 33 42 70 79 34 35 49 96 99 86 88 90 82 80 70 66 63 70 78 76 76 79 76 80 79 87 89 80 80 90 70 39
38 53 48 46 34 40 36 38 35 32 33 34 36 56 76 40 42 39 38 46 67 99 99 99 92 100 99 94 84 78 66 65 71 77 76 74 78 85 85 81 85 70 91 86
55 52 49 32 49 39 30 32 35 36 42 36 35 61 36 38 34 38 45 46 46 68 76 94 100 99 99 99 98 98 86 79 74 68 75 76 76 73 81 66 69 72 89 70
60 64 50 33 42 29 56 29 42 44 66 48 45 43 34 32 33 34 34 35 34 44 60 77 88 98 100 99 100 93 84 92 98 81 81 78 79 80 81 85 83 78 61 46
60 60 51 47 33 44 51 33 47 53 64 27 33 28 29 30 32 34 33 32 32 33 30 42 61 62 71 88 100 100 100 100 89 78 83 85 73 76 80 77 71 67 79 75
68 72 68 54 52 37 54 37 22 28 46 34 27 25 24 22 39 55 44 30 31 31 30 29 28 37 50 43 52 80 98 99 99 99 92 82 66 57 55 72 71 75 72 79
78 80 81 60 61 56 77 33 32 49 63 46 36 33 34 37 29 36 31 24 20 18 18 21 26 27 26 39 37 32 56 88 95 88 80 92 89 76 70 79 78 80 76 78
73 84 86 74 71 78 59 44 56 68 63 49 40 37 35 34 33 32 30 28 25 23 20 17 16 16 18 25 26 30 28 40 68 92 98 94 90 82 84 77 74 69 80 79
74 76 98 86 81 48 42 44 37 42 39 35 29 18 18 19 18 17 17 19 26 27 25 21 18 16 16 17 14 23 25 27 29 36 55 93 96 94 79 70 71 67 79 85
35 35 40 38 49 27 27 23 20 17 18 20 21 22 21 20 18 15 13 12 12 12 13 23 28 24 18 16 16 16 12 22 24 28 29 38 82 76 74 78 76 82 84 85
69 38 34 31 30 31 28 27 25 23 24 27 28 31 30 26 21 16 14 13 10 11 12 12 17 29 31 26 19 16 16 14 14 21 24 28 30 60 73 64 59 74 90 77
74 56 48 42 40 31 35 28 26 28 30 32 38 33 24 16 14 13 12 13 13 12 13 14 14 23 35 36 33 27 20 20 19 11 19 22 26 30 31 36 41 38 58 84

GFSCGP_700_rhum_075.txt.gz
RH
31 28 29 27 24 18 20 25 27 30 40 40 42 77 82 95 96 99 85 80 99 98 97 99 97 99 99 72 61 42 22 28 35 46 41 86 74 99 87 68 76 76 94 76
27 26 25 23 22 20 22 21 26 31 41 38 35 31 60 81 93 87 80 82 90 99 99 98 98 100 100 83 58 57 35 26 37 45 67 90 100 98 68 72 71 74 74 68
24 19 23 22 25 27 30 25 26 31 32 36 28 29 49 56 68 93 77 81 70 97 99 96 99 98 94 95 61 49 34 26 39 47 59 51 62 94 80 61 54 58 84 65
22 19 21 24 29 35 26 24 25 28 31 28 30 25 40 54 60 84 72 76 96 98 98 100 96 100 100 94 41 44 28 26 35 46 61 62 48 60 68 66 99 53 60 70
22 19 22 29 35 34 25 24 26 30 29 22 26 26 44 58 62 91 55 99 99 84 98 98 98 99 100 96 41 31 38 38 39 49 67 46 47 100 84 78 92 50 58 62
23 22 22 23 29 34 35 33 30 28 27 21 21 20 49 51 63 83 86 52 78 99 98 85 100 99 96 98 85 50 48 52 51 67 63 52 60 86 99 98 66 60 48 58
32 32 25 24 28 35 39 35 28 27 23 19 19 18 39 48 54 54 70 56 66 100 100 78 94 96 92 100 89 80 60 59 60 59 57 54 50 48 73 77 72 77 53 42
25 27 24 25 30 35 36 30 20 23 18 15 17 19 39 56 75 84 78 68 93 98 86 90 97 99 88 98 92 87 73 64 70 63 59 51 49 49 61 58 65 87 88 100
24 22 29 31 34 34 32 32 21 16 14 13 19 34 44 66 78 36 66 65 65 94 97 74 92 99 98 100 94 87 81 67 71 73 76 68 52 46 47 73 61 90 98 91
30 26 26 28 31 32 31 30 26 22 20 17 16 29 30 60 80 36 30 47 76 82 85 99 99 100 98 98 99 93 87 56 72 84 84 76 68 54 45 40 38 59 95 63
26 30 27 26 26 24 26 29 26 21 17 15 18 31 48 83 78 33 30 33 37 55 73 81 78 94 98 98 100 99 98 65 69 83 88 90 84 81 70 49 43 41 46 44
24 26 25 26 26 29 27 21 25 23 21 17 16 39 66 95 33 31 33 34 44 48 56 62 79 79 87 95 100 99 99 98 76 78 79 93 95 93 86 64 49 43 40 46
31 21 24 27 29 28 27 26 25 21 18 18 17 48 72 60 46 32 52 50 45 48 58 61 68 79 74 91 96 82 94 99 99 85 90 84 88 92 94 84 65 45 40 39
21 27 32 27 22 22 26 26 26 25 22 20 22 60 70 85 57 52 73 87 71 62 51 60 75 57 56 66 87 96 97 94 96 96 95 84 78 88 94 97 90 67 43 39
34 33 32 33 28 25 25 27 25 25 22 20 43 56 66 76 81 75 98 78 88 78 78 88 87 94 93 91 91 90 98 90 72 89 86 85 88 81 91 77 89 83 58 37
34 38 39 35 35 30 27 27 27 25 26 27 38 60 70 76 78 74 72 98 97 81 97 96 92 76 73 75 82 94 95 80 79 71 69 73 68 74 69 88 87 84 68 48
46 31 37 31 34 34 31 27 26 23 25 30 35 58 74 76 79 77 77 54 72 97 96 96 88 96 97 95 92 79 75 70 66 74 75 74 80 75 80 69 80 79 87 62
50 50 38 32 35 37 32 37 29 27 35 54 55 65 65 76 78 70 71 41 47 63 74 82 91 100 100 98 93 94 90 88 78 76 70 73 69 77 73 77 77 70 68 55
42 49 45 35 33 32 44 31 37 45 56 59 69 73 69 63 67 72 38 34 33 33 38 54 68 75 81 94 99 99 99 96 86 86 82 78 72 78 79 78 70 74 78 77
44 58 49 41 38 29 43 49 42 46 50 52 67 68 65 52 44 80 60 39 33 33 31 29 28 36 55 59 66 79 95 98 99 97 86 82 80 71 84 80 80 77 79 83
56 53 57 50 47 42 65 49 31 42 54 74 66 69 52 48 50 66 52 46 38 32 28 26 27 26 26 26 37 53 53 62 88 95 91 95 90 89 85 76 78 79 72 78
57 68 67 54 46 51 73 48 51 64 75 56 54 40 30 25 25 29 31 26 20 17 16 14 14 15 16 17 22 24 30 48 52 59 80 78 74 74 81 80 81 79 70 68
77 68 80 68 75 79 88 78 74 82 74 55 50 35 32 31 29 27 27 25 23 22 20 19 17 16 15 15 14 12 13 21 26 43 56 74 79 72 68 73 75 82 79 70
66 75 68 75 66 80 78 73 20 24 56 29 21 17 16 18 17 17 15 14 12 12 12 13 14 17 17 17 19 19 16 12 10 16 26 37 58 83 84 80 87 82 83 76
71 78 79 76 72 76 76 70 22 19 18 18 21 22 22 21 21 17 16 11 8 7 6 7 8 8 8 8 10 13 19 21 17 11 9 16 27 36 50 78 81 81 74 73
78 82 90 90 78 82 75 78 34 22 21 22 25 25 25 21 16 11 15 11 8 7 6 5 5 5 7 7 8 8 11 17 21 22 18 11 8 19 29 36 58 69 66 76

GFSCGP_700_rhum_078.txt.gz
RH
39 34 27 28 25 25 25 24 28 43 38 36 59 60 59 93 99 82 82 95 86 87 97 98 86 88 93 71 48 36 22 26 30 31 38 61 73 72 80 72 67 67 81 64
28 27 23 25 24 22 21 19 21 46 44 50 62 57 61 83 76 86 83 82 86 92 96 85 85 94 100 70 60 52 30 25 32 41 35 82 87 78 97 86 81 58 60 58
22 19 20 22 22 20 18 17 21 36 42 52 37 62 74 87 84 82 77 78 67 76 89 89 100 79 79 99 61 49 39 23 31 39 42 80 92 95 76 96 61 59 70 52
20 18 17 20 20 18 18 21 22 39 34 29 32 35 50 68 80 93 72 70 66 78 82 95 94 86 96 93 68 69 49 31 28 34 44 34 59 90 71 55 80 68 60 60
20 19 18 17 19 21 23 22 23 33 30 24 23 24 38 49 84 86 83 65 66 62 74 97 97 84 81 83 83 52 37 27 27 34 48 41 56 62 70 88 95 59 60 47
17 18 18 18 20 27 28 25 20 24 30 23 22 22 58 57 60 92 65 77 94 82 97 98 99 93 96 84 72 42 36 24 24 32 45 47 50 81 84 65 75 58 52 53
26 21 16 19 21 28 28 29 22 24 26 23 19 21 42 60 50 73 80 94 79 77 82 96 93 84 95 91 98 59 26 24 27 32 41 46 41 61 82 71 80 62 82 47
26 24 26 22 20 22 27 27 23 28 22 18 18 19 47 57 65 69 74 76 99 99 90 80 86 92 92 91 100 86 30 32 36 35 57 50 40 60 53 82 92 72 73 88
33 25 23 22 20 22 26 28 26 18 17 15 21 41 58 76 80 73 77 72 76 92 100 96 99 85 93 87 87 95 56 47 46 44 54 52 39 41 50 66 83 63 92 79
31 32 24 20 20 25 32 28 26 23 25 28 25 39 51 67 86 61 68 66 62 65 85 86 98 99 94 74 100 98 75 59 60 51 48 48 39 37 42 43 38 54 78 96
30 32 30 26 27 27 31 39 29 24 22 22 33 49 52 71 92 63 59 48 59 62 68 89 82 99 96 87 100 98 92 67 75 67 53 47 39 35 38 35 30 37 51 54
28 26 38 24 22 26 26 27 27 25 25 22 51 68 74 82 49 37 41 48 52 61 64 69 66 70 91 75 82 83 100 92 61 71 66 56 42 38 38 34 34 35 42 43
33 25 27 26 23 23 22 24 23 22 22 22 40 52 85 52 46 36 33 46 35 41 62 71 77 93 95 68 77 95 93 98 94 97 75 76 74 52 45 43 46 38 41 37
30 27 32 50 35 24 24 24 22 21 21 21 35 70 88 63 46 58 52 58 45 42 59 64 72 74 81 90 75 87 92 82 92 79 97 76 72 71 59 55 54 49 44 41
30 24 28 34 30 26 22 22 22 22 24 31 61 68 91 68 69 74 76 82 65 41 49 59 66 70 77 84 82 69 78 86 84 70 83 74 94 86 80 62 66 59 52 44
31 31 40 36 30 28 26 22 22 22 22 26 50 58 77 84 70 94 86 70 66 58 60 71 67 78 83 72 77 76 75 85 93 88 77 66 84 98 63 56 54 66 59 60
35 36 37 39 31 30 30 27 25 24 24 54 66 74 74 79 85 92 77 77 55 41 49 56 53 53 63 68 77 86 79 81 67 91 96 80 84 65 57 76 68 75 76 68
45 47 45 46 37 38 32 28 28 27 28 46 57 71 72 77 79 85 75 48 56 46 52 59 52 58 48 45 56 63 80 76 78 76 83 81 80 78 81 70 67 68 68 65
35 41 42 38 61 50 44 35 30 29 34 55 63 66 72 77 74 67 47 40 36 38 36 52 69 79 85 92 80 68 70 81 87 86 84 77 79 84 90 79 74 73 70 65
36 41 52 40 35 35 43 43 41 34 43 44 66 70 74 68 75 80 48 35 32 33 34 34 36 42 46 59 71 90 94 96 98 81 90 87 84 76 72 71 70 76 76 71
44 47 51 47 41 49 65 44 30 45 40 52 57 65 62 61 60 72 68 44 42 38 33 31 29 28 27 26 27 32 44 57 68 82 79 79 84 83 81 74 74 76 76 74
57 56 54 46 46 47 64 56 51 61 72 57 64 72 68 54 52 69 74 57 48 41 35 30 21 17 18 20 22 24 24 24 24 28 49 78 87 84 87 83 85 82 76 66
64 68 76 67 74 82 86 76 60 62 70 60 70 64 52 33 32 44 42 32 24 18 14 14 14 15 15 14 12 10 9 10 14 20 22 22 27 43 61 68 66 62 77 83
64 63 72 79 80 80 89 89 80 45 92 76 77 67 42 46 42 33 30 25 23 21 20 18 16 15 15 15 16 16 15 12 11 9 8 8 16 21 23 32 50 46 46 49
80 71 71 74 72 73 74 79 78 50 69 58 40 38 36 30 25 24 18 14 11 10 8 6 5 5 4 5 6 6 7 8 9 11 12 12 10 7 10 20 23 35 58 48
73 91 82 88 80 84 85 76 84 86 46 46 62 28 21 20 21 18 16 10 7 6 5 4 4 4 3 3 3 3 3 4 5 5 6 6 8 12 12 8 10 23 26 47

GFSCGP_700_rhum_084.txt.gz
RH
38 36 36 43 37 33 34 36 37 45 65 59 69 61 57 57 93 94 84 82 87 77 86 76 67 56 75 65 63 30 26 31 34 29 46 71 87 72 74 75 79 79 72 72
35 26 22 34 34 32 32 32 30 56 57 54 62 64 67 60 61 83 83 80 84 96 86 73 75 76 74 70 65 45 31 33 31 34 53 69 82 73 79 77 76 81 69 58
37 19 23 17 32 31 30 28 24 38 59 58 57 72 62 72 75 78 87 80 91 91 83 87 89 78 72 87 76 55 50 27 33 36 34 58 73 69 87 79 65 64 59 56
37 22 27 27 27 28 27 25 24 26 42 49 50 44 58 56 75 80 80 83 83 87 81 83 88 87 70 81 83 65 50 38 33 33 37 58 75 70 71 70 66 66 52 51
31 20 29 30 24 24 24 23 22 20 33 49 43 46 45 61 77 70 77 89 93 87 86 82 74 70 74 77 77 77 67 46 29 30 38 37 75 65 74 70 66 71 66 54
28 19 22 22 19 20 22 20 21 30 47 50 44 42 68 53 56 67 69 84 83 83 87 86 84 82 79 84 87 75 71 66 55 31 30 41 51 63 70 62 87 62 57 50
33 26 23 22 20 18 18 18 29 39 48 50 36 56 44 54 50 56 59 58 68 79 70 89 86 88 81 80 86 79 79 81 55 51 26 35 48 38 50 72 77 64 53 52
32 26 24 20 18 18 17 19 31 36 49 36 39 47 54 56 64 73 76 58 73 80 83 91 83 89 86 84 83 84 82 79 35 43 28 31 49 57 69 71 70 68 63 56
31 28 22 22 19 18 18 20 26 29 28 26 66 80 84 75 66 72 72 58 50 51 71 92 87 77 88 92 97 88 86 80 38 37 24 32 47 54 65 74 62 66 71 65
32 33 28 26 23 16 18 21 27 28 38 37 80 80 81 77 64 64 74 67 50 44 59 81 88 82 80 88 94 95 98 95 56 28 27 32 40 56 47 55 59 67 61 79
32 31 29 30 28 24 19 20 24 34 30 40 83 91 75 61 71 74 69 59 54 50 64 70 77 84 73 84 74 87 98 98 77 35 40 48 44 59 52 50 55 44 55 70
30 28 30 34 30 27 25 26 28 30 35 46 64 98 79 76 64 61 59 56 59 59 62 64 76 74 72 81 79 97 85 99 90 61 40 51 57 69 59 45 46 45 53 56
31 30 32 32 29 25 25 25 24 24 29 37 45 87 74 66 63 63 63 61 59 55 54 64 68 78 85 75 67 77 99 97 98 92 60 54 62 65 66 63 57 50 46 39
30 32 33 41 44 42 32 26 27 26 25 33 40 52 60 50 62 64 60 60 67 67 65 62 74 69 76 73 75 88 81 94 86 91 93 67 72 68 69 68 66 56 52 45
30 34 34 43 47 35 33 30 26 28 24 31 37 36 36 49 66 66 68 63 48 53 47 47 66 86 84 79 81 91 83 78 74 88 88 97 83 81 75 74 66 59 49 48
32 41 36 37 48 40 35 31 30 28 27 36 37 43 55 70 80 75 75 67 58 46 38 45 56 63 80 83 84 82 87 76 72 63 74 84 84 78 86 88 82 75 74 72
35 40 40 44 46 44 38 38 36 49 40 31 34 39 46 65 70 77 93 100 96 65 54 78 90 75 88 88 91 98 92 81 82 78 85 95 91 91 88 91 82 85 83 79
46 46 41 43 44 47 47 45 44 46 57 52 52 52 62 69 70 78 96 94 97 83 79 92 99 90 98 99 99 100 100 92 92 86 72 86 77 78 80 88 89 74 84 65
39 42 45 41 41 42 35 42 44 41 48 47 60 79 80 69 65 60 64 73 87 87 77 78 74 79 85 85 82 81 84 72 84 93 94 81 84 83 68 71 65 83 77 76
38 36 35 45 55 51 42 45 45 42 47 72 70 66 66 71 63 56 55 42 46 51 49 54 75 84 86 80 72 62 72 77 78 81 82 92 92 100 82 75 80 74 71 71
39 43 40 39 51 57 49 48 46 46 47 57 73 74 76 74 72 62 58 57 50 42 36 33 36 40 40 38 35 35 38 50 63 79 86 93 90 92 100 99 95 98 95 89
59 49 48 47 51 58 62 56 43 43 48 58 72 70 78 80 78 73 58 48 40 45 49 49 40 36 34 32 31 30 28 28 27 26 28 39 50 64 78 87 84 92 95 92
55 64 62 61 59 64 66 65 56 46 61 72 81 79 79 76 75 71 62 55 46 41 41 50 55 48 43 37 31 20 14 15 20 24 27 26 26 25 25 27 47 58 66 78
61 64 61 62 73 79 80 76 65 54 55 58 65 68 65 66 66 66 64 58 56 55 53 41 40 34 22 14 12 13 13 12 10 9 9 10 12 14 17 20 22 23 24 27
67 69 67 64 66 64 55 53 53 64 61 62 60 56 56 56 54 57 62 63 60 42 31 27 25 22 20 17 15 13 12 12 12 12 12 12 11 10 9 8 8 8 9 12
67 66 68 66 67 67 64 65 67 64 55 44 35 31 46 41 38 45 52 48 42 32 22 17 15 11 7 5 4 3 3 3 2 2 2 2 2 2 3 4 4 6 7 8

GFSCGP_700_rhum_087.txt.gz
RH
47 46 45 47 43 37 38 39 33 61 58 87 81 74 60 81 84 96 78 90 85 91 90 81 79 82 80 78 67 45 24 26 30 32 51 60 79 76 82 82 69 76 75 62
44 37 37 42 42 38 33 34 36 57 65 80 73 67 69 70 78 88 84 76 84 95 88 84 76 63 66 72 73 60 32 31 32 28 57 74 84 71 75 80 77 81 71 81
41 28 31 38 41 37 33 32 30 40 65 70 72 74 65 70 76 86 92 82 85 82 77 81 77 67 73 76 78 75 55 38 31 32 32 69 81 68 87 73 68 82 71 60
35 30 28 25 30 35 32 32 28 28 54 59 67 62 62 66 70 82 89 89 85 83 85 81 83 74 75 74 91 82 61 58 28 29 27 48 78 73 82 76 67 66 54 50
35 25 28 31 20 31 31 28 25 23 45 52 64 55 45 60 69 73 75 82 80 83 83 89 87 81 88 81 77 85 76 62 41 25 33 32 64 73 74 76 63 67 56 52
33 30 28 26 25 28 28 24 21 23 33 61 42 47 44 44 43 55 66 72 75 80 81 93 91 91 88 89 88 85 79 73 43 34 24 34 49 70 74 73 67 65 59 58
32 28 24 24 24 22 21 20 30 60 62 61 44 49 42 52 48 47 52 65 81 83 84 93 92 89 86 87 88 89 90 75 67 68 53 25 39 42 60 62 80 87 66 52
35 28 24 22 23 21 19 19 24 46 62 46 39 53 44 44 51 58 68 70 71 76 81 89 89 86 80 84 84 86 87 85 79 71 35 39 31 40 44 63 82 79 65 56
33 28 24 24 22 22 19 20 18 30 34 35 68 60 40 39 46 56 65 71 70 75 95 97 94 82 84 81 88 83 91 94 91 81 34 38 28 48 53 77 74 75 62 72
33 31 29 29 24 23 18 20 23 28 40 43 90 76 56 44 54 60 64 70 70 68 74 84 80 91 84 82 86 86 95 100 98 59 39 32 28 44 57 58 65 68 71 84
32 34 29 29 30 25 19 21 22 31 33 54 94 75 54 54 52 55 62 66 70 62 65 59 73 75 83 85 89 97 99 99 91 89 30 30 26 43 61 48 49 66 75 74
31 30 30 32 32 28 25 25 21 24 41 49 60 64 52 53 55 56 59 60 61 68 60 64 72 82 85 84 88 76 87 89 97 81 46 29 34 40 60 61 56 58 53 60
30 30 33 32 28 28 29 27 27 29 29 39 48 48 50 54 55 60 65 66 68 64 65 68 68 70 76 76 56 75 86 92 76 85 84 50 42 42 61 63 55 48 48 57
30 32 32 42 38 35 34 29 28 26 27 37 40 33 40 45 49 61 65 59 53 54 59 53 61 61 64 76 80 82 89 90 95 82 94 88 56 56 68 70 64 50 49 52
32 33 43 43 42 38 35 30 30 29 27 30 33 34 35 34 38 52 56 54 53 50 50 54 60 63 66 68 69 84 83 95 87 91 80 91 84 69 70 74 80 71 58 51
31 37 37 37 51 48 47 34 47 37 27 25 34 36 35 38 41 50 63 63 64 55 39 54 58 64 69 78 86 80 88 87 73 64 61 73 80 71 87 88 80 83 80 69
32 35 38 47 39 52 55 43 48 63 52 39 30 32 33 37 46 57 65 61 53 55 54 46 36 39 52 68 87 84 85 95 86 75 81 82 84 80 83 93 90 90 93 82
45 38 36 44 47 64 50 46 42 42 45 56 52 46 43 61 65 66 68 83 66 66 61 69 72 56 54 66 81 90 89 98 94 79 78 82 79 76 75 66 82 80 87 90
40 45 43 38 40 44 51 56 45 35 35 38 42 60 57 56 67 70 72 87 98 88 82 89 97 98 98 98 100 99 97 98 99 97 91 92 88 77 79 67 85 75 81 85
38 36 38 49 45 40 39 42 47 44 43 36 51 39 60 63 64 57 50 79 98 96 86 83 81 82 87 96 98 92 90 84 71 80 94 100 99 96 92 72 70 77 87 85
44 40 37 39 42 49 47 46 44 45 42 37 44 43 42 41 61 60 59 46 46 48 56 61 60 70 74 74 76 79 81 79 71 73 79 85 91 97 100 99 68 63 86 96
52 40 43 43 46 51 52 52 51 52 45 41 44 62 63 66 70 62 45 55 58 53 49 45 39 35 36 35 34 32 31 31 32 34 39 57 72 80 83 88 97 90 77 73
66 57 56 52 53 55 55 52 54 51 46 45 48 68 75 79 78 78 76 65 62 60 56 57 50 49 49 46 38 37 33 30 29 29 28 28 27 27 28 36 53 76 85 76
48 46 57 59 66 66 64 59 54 52 54 61 76 90 85 87 86 83 79 72 65 58 56 54 54 55 46 41 45 42 34 26 20 15 13 16 23 25 25 25 25 25 25 26
53 60 59 60 60 57 55 51 49 46 51 60 62 70 77 88 90 72 70 69 70 68 66 63 60 47 29 25 22 18 15 13 12 12 11 10 10 10 10 11 11 11 12 13
58 56 58 62 65 64 68 71 67 63 58 44 51 60 58 54 56 61 65 70 67 67 65 55 42 35 28 22 19 17 15 14 12 10 9 9 10 10 10 11 10 10 10 9